Theta_e
333 328 317 314 301 299 293 296 299 300 301 307 311 312 311 312 310 303 327 334 339 341 345 346 348 350 348 346 344 343 340 341 338 339 340 341 339 338 337 337 337 336 336 337 335 335 336 335 336
329 326 315 306 296 292 294 299 300 303 305 312 314 314 313 309 321 323 327 336 340 342 344 345 345 347 347 345 344 342 341 341 340 342 342 342 340 338 337 336 335 335 336 336 336 336 335 335 336
326 321 311 301 294 293 295 300 303 306 308 307 309 315 314 314 320 326 330 337 341 341 344 343 345 346 345 344 343 342 341 341 339 342 340 340 340 337 336 336 334 335 335 335 335 335 334 334 335
320 315 309 299 294 297 299 303 307 307 307 309 312 310 316 324 324 328 336 338 338 340 342 342 345 346 345 343 342 341 340 341 340 339 339 340 340 337 336 335 333 334 334 333 334 334 333 333 333
316 308 299 297 297 298 301 308 308 305 305 306 310 308 312 323 328 334 335 337 336 338 340 342 344 345 344 343 342 342 341 339 339 339 342 340 340 337 336 334 333 332 332 332 333 332 333 332 332
310 308 297 294 299 300 302 309 308 305 305 306 311 313 316 324 328 332 334 334 337 337 340 341 337 340 342 343 342 342 340 340 340 340 340 339 339 338 336 334 332 331 331 332 332 331 331 330 330
306 303 298 296 299 300 303 307 306 305 305 304 314 310 315 321 326 329 333 334 335 337 338 338 338 337 336 338 339 339 339 339 338 337 337 336 336 337 335 334 333 331 331 332 331 331 331 330 329
308 305 298 297 299 300 304 305 305 306 307 309 315 308 310 322 326 329 332 332 333 335 336 337 335 335 335 335 332 334 336 336 335 333 331 330 330 330 331 329 334 332 331 331 331 331 330 329 328
309 301 297 300 301 302 306 303 305 308 308 308 312 312 316 325 326 326 326 327 330 333 334 334 333 333 333 333 331 330 331 332 331 329 326 324 322 322 323 324 330 334 334 332 332 331 331 330 327
305 298 300 305 304 304 306 304 304 304 304 305 310 319 322 324 323 323 324 326 329 330 332 333 332 331 331 335 330 330 330 329 327 325 323 322 321 321 322 321 324 329 330 333 332 332 331 325 317
305 300 304 306 306 307 306 303 308 304 301 306 307 312 320 320 321 322 322 326 327 329 330 332 331 331 330 331 328 329 327 325 324 323 322 321 321 319 320 319 319 321 321 323 326 324 322 318 316
300 308 307 308 308 306 305 308 306 305 305 309 310 313 320 320 321 323 322 322 324 325 329 331 332 331 329 328 328 329 328 325 323 321 321 320 318 316 316 317 318 318 318 317 317 317 318 317 316
303 305 308 309 307 307 308 306 306 308 311 312 312 316 320 321 322 324 325 323 323 324 327 329 331 330 330 326 326 326 329 327 325 322 320 320 318 316 316 316 316 316 316 315 314 314 314 314 314
302 305 305 304 306 306 306 305 307 308 312 312 311 312 318 320 321 321 322 323 322 325 326 327 330 330 330 328 325 326 327 327 325 324 322 321 320 318 317 316 315 314 315 315 314 314 314 314 315
303 299 301 300 302 303 306 301 303 308 310 310 310 310 311 317 321 321 324 324 325 325 327 325 328 328 327 327 325 325 326 326 325 325 323 322 321 319 318 317 316 315 314 315 314 313 314 313 314
299 297 291 298 301 302 302 294 299 306 307 307 307 306 307 308 314 321 323 325 327 326 325 327 328 327 325 327 326 325 325 324 325 324 324 323 323 322 319 318 317 317 315 314 313 313 312 311 311
293 286 291 294 301 300 299 294 298 303 303 303 303 303 304 305 308 310 318 323 325 327 326 326 326 325 324 324 325 325 324 324 323 322 322 323 324 323 322 321 320 317 316 315 314 312 311 310 311
286 287 290 291 295 298 296 295 298 300 299 300 301 302 302 303 305 309 311 321 324 325 327 327 327 326 325 324 323 322 321 322 323 322 322 322 323 323 322 321 320 318 316 315 313 312 311 310 310
292 289 290 290 296 294 294 295 298 299 297 297 299 300 301 304 308 308 309 311 321 323 324 325 326 326 325 323 321 321 319 320 319 321 323 322 322 322 321 321 317 318 318 318 315 314 312 310 309
292 289 288 291 295 293 292 292 296 297 297 298 299 299 300 302 304 305 306 308 316 320 323 325 326 327 325 325 325 324 323 322 322 321 321 322 322 322 322 321 319 318 318 315 315 313 310 310 310
294 292 287 288 292 293 290 291 293 296 296 298 299 300 301 301 302 304 304 305 310 318 321 324 326 327 327 327 325 321 319 318 318 319 319 318 321 321 321 321 321 318 318 317 315 314 312 312 309
288 296 292 291 289 283 290 281 287 291 294 296 298 298 300 301 301 302 304 304 307 316 321 324 326 327 327 327 324 322 321 320 322 322 322 320 318 319 320 321 320 319 318 318 317 317 315 313 312
289 296 294 291 288 286 287 284 286 290 291 293 295 297 299 300 300 301 301 303 305 313 318 323 325 326 327 327 327 324 322 324 324 322 321 321 321 319 319 319 319 318 318 318 318 316 315 316 314
296 293 291 289 288 282 286 285 286 289 290 293 296 298 298 298 298 299 302 304 305 308 316 319 321 324 326 326 326 325 323 323 323 322 321 322 322 321 319 319 319 319 318 318 317 317 316 316 316
295 291 283 281 281 280 286 286 288 291 292 294 296 297 296 297 299 299 299 300 302 303 308 315 318 320 323 325 325 326 325 324 324 323 323 322 322 321 322 320 319 319 319 319 318 317 317 316 316
292 291 282 272 276 279 284 283 288 294 297 298 297 296 297 297 297 297 298 298 299 300 302 307 313 317 319 322 323 325 325 325 325 325 325 324 324 324 324 322 321 320 320 319 318 318 317 317 317
290 288 290 282 277 276 280 285 292 294 294 294 294 294 294 295 296 296 296 297 297 297 298 301 305 308 314 318 320 322 323 324 325 326 327 326 326 326 326 324 322 322 321 320 319 317 317 317 317
291 292 286 286 276 273 278 280 283 287 290 292 291 292 294 294 293 294 295 295 296 296 296 297 299 301 303 306 309 313 318 321 323 325 325 326 327 327 326 324 323 323 322 321 320 318 318 317 317
290 287 286 285 284 276 273 279 288 289 291 290 291 293 293 293 293 294 294 294 294 294 295 296 297 298 300 301 302 303 305 308 312 316 319 323 326 327 326 325 324 323 322 322 320 319 319 317 317
292 289 288 281 279 281 280 279 289 290 292 291 291 293 293 294 293 293 292 292 293 293 294 294 296 297 297 298 299 299 300 301 302 304 307 312 316 322 325 325 325 324 324 324 322 321 320 319 318
Wind_Speed
11 10 2 5 6 6 0 1 2 1 2 2 2 5 6 2 2 3 3 6 10 8 7 7 11 13 15 15 13 10 12 11 12 12 11 14 13 12 13 12 12 12 14 14 14 14 14 13 11
10 5 5 3 7 4 4 2 2 1 2 7 6 3 4 1 2 3 4 4 11 10 7 6 10 12 12 14 12 10 10 10 9 12 12 15 13 12 11 13 11 12 12 13 13 13 12 11 11
7 2 4 5 4 4 5 4 5 1 2 1 3 4 2 1 2 7 3 9 7 9 9 8 11 12 12 13 10 10 10 9 8 7 12 11 13 13 11 11 11 10 11 12 11 10 10 10 10
6 5 5 5 2 2 3 5 4 4 2 2 3 5 2 3 6 6 10 11 7 6 7 10 11 12 13 12 10 10 10 9 8 3 13 10 14 12 11 9 9 10 8 10 10 9 8 8 9
4 4 4 3 4 3 1 5 7 4 3 2 3 3 1 3 4 11 10 9 10 6 6 7 11 13 13 12 11 10 10 10 8 6 11 11 12 13 11 9 8 8 7 8 7 7 6 6 8
4 3 5 1 3 3 1 4 4 3 2 3 4 5 3 2 7 8 9 7 7 9 7 6 8 10 11 12 11 10 9 9 7 6 10 11 10 12 12 10 7 7 7 7 6 4 3 4 6
4 4 5 2 2 2 3 6 4 5 3 3 8 4 3 2 4 7 8 7 6 6 7 5 6 8 9 10 9 9 9 8 7 5 8 9 10 10 10 10 7 8 7 7 6 4 1 2 4
4 4 4 3 3 3 1 3 2 4 5 2 6 3 5 5 8 6 6 6 6 6 6 7 5 6 5 6 10 8 8 8 9 8 5 5 6 7 7 7 10 8 7 7 5 4 2 1 2
2 5 2 5 6 3 2 2 1 1 4 1 2 3 3 7 10 7 4 2 4 5 6 6 6 5 6 5 6 9 9 7 6 7 7 5 2 4 6 4 7 10 6 7 7 6 4 2 3
4 4 8 4 3 3 1 2 4 3 1 1 1 2 3 9 10 10 9 10 10 11 8 7 7 7 5 5 6 5 5 5 5 5 5 4 3 3 4 4 6 8 8 6 7 6 5 2 1
2 4 4 2 2 2 2 1 1 6 4 5 6 3 6 5 8 9 9 10 13 9 7 9 8 7 7 5 4 3 3 3 3 6 5 5 3 3 2 2 2 1 4 2 3 2 1 3 2
2 5 3 1 1 0 2 1 2 3 5 6 4 3 8 10 12 14 12 9 9 8 10 9 9 9 8 4 5 5 4 4 3 4 6 4 3 3 3 3 4 3 2 4 3 2 3 4 5
4 3 4 4 2 3 1 4 5 7 8 4 4 5 9 11 14 11 10 7 7 11 10 10 10 10 9 7 5 5 6 6 6 5 5 4 5 5 4 4 3 4 3 3 3 4 4 4 5
2 4 4 1 3 3 4 4 6 6 7 8 5 7 9 9 13 7 7 11 11 13 14 11 11 11 9 9 8 7 6 6 6 6 7 8 5 5 5 4 4 4 4 4 4 4 4 4 4
2 5 6 3 3 6 5 8 13 6 4 8 9 7 8 10 10 12 15 14 14 13 13 13 13 12 11 11 8 7 6 6 7 7 8 9 8 8 7 6 5 6 5 5 4 4 3 4 4
4 3 2 3 8 5 9 19 7 7 7 11 11 9 8 9 12 12 14 14 13 12 13 12 12 13 12 11 8 7 6 6 7 6 6 9 10 9 8 7 7 6 5 4 4 4 4 4 4
4 3 9 7 9 5 8 9 4 6 5 9 8 9 9 8 8 10 11 12 14 15 14 15 14 14 14 12 9 9 9 8 7 5 6 9 10 10 9 8 7 6 5 5 5 4 4 4 4
7 5 6 8 3 7 7 12 9 7 6 9 9 9 9 9 13 9 10 12 13 13 15 14 13 15 14 10 8 6 5 7 6 7 8 9 9 11 10 7 7 6 4 5 4 6 4 4 4
7 5 9 3 4 1 7 14 16 11 6 10 14 9 10 14 15 8 9 9 11 10 12 14 15 17 11 9 8 8 9 8 5 7 10 10 10 10 10 8 6 6 8 9 8 5 7 5 3
6 6 8 3 4 3 7 17 17 14 12 13 13 10 10 8 10 11 9 8 9 14 16 15 16 16 15 11 10 9 8 8 8 8 9 10 11 10 10 11 8 9 7 6 8 7 3 4 5
15 19 4 3 1 3 5 16 14 9 6 7 7 9 7 11 11 11 10 10 9 12 14 16 17 17 15 16 7 3 0 1 4 6 7 9 11 10 12 12 10 8 9 9 9 8 9 8 4
19 8 7 6 4 7 4 12 5 4 7 6 7 8 10 11 8 8 14 13 10 13 13 15 15 15 14 14 11 13 11 12 10 9 7 8 11 12 12 13 11 11 9 11 10 9 11 9 9
11 10 13 6 5 3 10 5 5 1 6 7 7 9 11 10 7 9 10 13 12 9 10 13 14 13 13 13 16 12 13 12 8 7 10 11 10 13 14 15 14 13 10 12 12 10 11 10 10
7 6 4 5 6 15 26 9 13 10 6 6 7 8 7 6 6 7 7 7 6 5 5 6 7 12 12 13 15 16 17 15 10 10 8 8 7 7 12 13 14 14 14 13 11 13 13 12 11
10 11 6 9 12 18 8 10 23 7 7 7 9 8 2 4 6 5 7 8 9 10 7 3 5 7 7 9 10 14 16 12 12 11 8 9 7 8 12 13 14 13 15 14 13 13 14 13 14
22 18 7 7 6 8 5 11 13 9 10 9 8 6 5 5 4 3 6 6 7 9 10 9 4 4 3 5 7 8 10 7 8 10 9 9 9 11 12 11 14 16 16 14 14 11 12 14 13
12 18 10 4 1 3 5 6 10 9 9 4 3 6 6 5 5 5 7 7 7 8 9 10 10 10 9 6 4 4 5 7 9 12 11 9 11 11 12 11 13 15 15 15 14 12 15 14 14
11 7 13 7 7 6 4 3 8 3 3 6 7 8 6 4 4 5 6 7 7 8 7 10 9 9 8 10 10 8 7 6 6 8 11 12 12 12 12 12 13 14 15 15 16 14 15 15 13
9 9 4 2 6 5 2 7 8 9 8 11 9 8 7 6 3 5 6 7 7 8 9 9 11 12 13 11 7 7 8 8 8 8 9 10 12 12 12 12 13 14 15 15 15 16 16 17 17
16 19 19 7 9 4 2 7 2 5 7 8 8 6 4 2 2 4 6 8 9 9 10 9 11 13 12 11 10 10 8 7 7 7 9 11 11 11 12 12 13 14 15 15 17 17 16 18 19
Wind_Direction
325 325 67 40 53 65 58 204 297 161 25 6 352 121 131 78 153 209 319 154 136 139 137 140 143 135 132 121 118 124 124 128 122 126 111 111 99 100 96 89 99 101 101 100 102 100 95 86 72
318 327 42 79 84 74 275 258 151 206 198 124 100 64 46 103 121 114 108 178 147 139 134 138 135 132 127 117 126 133 131 130 131 123 112 116 110 104 98 102 95 100 108 106 106 106 97 82 65
315 50 68 75 108 157 177 195 181 202 319 181 90 57 167 185 359 166 178 142 147 140 142 146 140 139 129 129 137 138 141 131 142 124 119 118 118 110 106 104 102 110 110 110 112 106 97 80 58
352 4 30 75 115 231 195 171 185 145 330 39 116 83 313 191 159 193 147 143 136 144 142 149 144 143 141 143 149 148 145 143 135 138 119 108 123 112 106 101 111 112 115 110 111 106 97 76 56
22 52 48 67 330 331 19 165 166 167 166 143 151 201 239 330 118 135 145 150 147 144 143 154 151 153 154 158 159 159 156 148 163 155 122 109 127 117 112 113 118 122 120 112 111 110 86 69 60
32 85 53 76 319 325 341 175 183 151 162 154 83 139 213 337 130 156 146 154 156 149 152 157 162 160 161 163 165 166 161 160 165 196 132 124 120 130 128 127 138 135 143 128 129 123 98 59 54
107 87 179 174 276 257 194 155 185 166 175 246 154 135 271 233 177 150 142 135 144 145 153 160 166 173 170 165 166 168 164 163 153 141 149 142 143 138 126 137 152 160 159 154 159 153 138 65 43
101 81 134 207 177 241 79 188 96 152 222 96 152 211 255 217 137 117 122 139 147 154 164 172 174 172 176 175 167 171 169 166 163 151 148 160 142 145 139 157 158 174 184 179 178 182 203 283 8
108 70 195 219 163 214 299 99 20 94 114 61 97 145 282 145 120 119 113 132 161 174 182 174 178 186 175 174 185 173 169 172 165 158 166 172 105 124 136 187 186 170 180 192 197 205 215 251 327
89 133 207 224 192 188 324 172 156 113 89 253 17 69 39 130 152 162 176 187 198 195 195 193 181 186 183 183 168 187 182 169 172 172 174 162 165 167 171 196 238 184 181 202 212 216 221 258 306
154 203 215 237 202 178 234 174 266 152 211 201 175 189 148 149 177 179 200 201 202 200 194 195 192 185 183 192 174 184 168 183 178 179 179 175 164 198 208 218 251 248 194 208 233 269 242 245 256
196 228 193 267 209 141 202 316 221 213 231 163 216 245 166 171 190 200 201 204 191 197 203 196 195 191 191 183 185 187 190 182 182 197 181 167 169 197 213 210 216 217 226 226 224 235 253 256 254
216 221 192 218 204 285 107 237 257 245 248 240 247 172 196 195 202 209 217 196 191 206 207 204 193 195 196 188 189 192 195 196 197 182 189 181 172 188 192 219 216 219 215 216 230 234 244 251 256
225 218 237 254 228 246 216 255 162 264 245 263 179 210 215 209 215 210 196 211 204 208 210 199 200 199 194 198 194 197 200 194 194 204 197 189 191 185 191 204 217 225 218 221 214 218 229 243 245
229 303 312 197 214 229 168 275 239 199 199 249 267 254 238 227 228 214 223 222 211 218 208 202 197 196 195 201 199 195 198 196 204 204 203 200 195 192 192 199 209 214 206 217 224 248 250 259 262
175 166 241 218 168 238 146 258 263 241 204 247 259 261 249 247 238 233 232 229 220 207 205 201 199 194 198 201 198 202 195 197 209 209 208 205 204 198 198 204 214 206 198 200 199 213 241 246 241
239 187 231 294 204 184 187 267 244 259 203 246 266 273 266 274 265 251 242 228 226 217 202 202 194 195 195 198 194 201 201 202 206 202 209 215 211 207 205 210 215 198 202 202 208 216 200 227 248
203 176 221 210 235 193 235 258 271 273 296 264 257 267 276 271 261 252 244 226 226 223 212 202 196 202 198 195 196 199 195 209 208 204 213 214 216 213 211 216 216 191 191 211 203 214 202 208 226
171 191 211 205 232 258 237 258 264 269 255 261 266 250 249 260 270 255 255 239 227 220 213 205 195 198 190 197 197 205 214 213 205 214 217 209 218 215 213 223 209 198 209 217 210 207 215 235 190
188 211 220 287 241 227 280 268 271 264 253 244 249 255 239 251 273 273 263 254 216 216 211 215 210 197 193 198 208 213 196 217 216 207 215 211 213 215 216 221 220 210 218 217 208 201 215 225 174
220 223 146 186 151 259 343 284 256 252 241 234 239 238 256 235 248 267 277 256 234 215 208 210 212 206 203 201 188 185 276 210 188 207 209 211 214 212 213 220 224 212 211 221 215 211 210 236 203
221 173 160 182 145 243 142 276 241 241 260 236 244 242 246 254 248 259 269 275 237 227 212 212 212 206 204 193 186 202 211 227 225 222 214 209 197 209 212 222 218 216 215 227 219 209 217 214 227
225 166 198 185 218 10 258 259 290 277 267 272 262 249 250 258 271 288 297 279 265 237 214 207 209 205 204 194 202 194 213 230 225 216 216 209 205 207 211 214 216 219 217 226 225 217 214 214 225
134 88 108 144 179 234 239 205 261 232 223 237 231 246 266 322 321 316 297 333 333 303 248 223 207 207 194 194 205 209 212 221 219 222 229 235 226 217 222 219 221 225 225 223 218 220 219 218 224
190 160 194 208 214 235 163 196 249 243 240 217 223 252 41 33 64 39 24 24 21 17 354 256 199 222 210 209 216 222 229 235 224 225 226 233 229 223 226 215 221 226 229 229 222 218 218 217 222
201 205 184 202 207 222 152 208 242 228 249 250 253 218 145 125 83 53 27 26 34 21 18 25 359 298 261 224 221 231 237 235 237 243 232 236 234 236 232 219 221 225 226 225 222 224 226 223 225
192 219 195 126 75 79 202 281 308 244 252 232 229 138 131 103 70 13 29 30 36 38 24 23 23 24 11 345 314 264 240 236 244 247 246 242 240 241 242 227 221 226 226 224 220 223 227 224 225
180 146 208 218 182 209 249 259 230 255 231 130 111 116 110 98 48 31 36 27 17 30 34 33 30 40 25 24 15 1 340 320 280 267 266 258 256 250 245 236 229 228 226 225 222 224 231 227 227
186 211 211 178 155 187 206 251 220 203 173 160 150 146 143 119 73 26 28 24 25 35 31 32 35 33 31 26 18 13 2 350 343 332 314 298 280 264 254 243 239 236 233 228 228 227 228 226 229
209 210 207 207 213 225 136 265 323 215 150 135 147 152 151 104 51 33 29 25 30 31 31 27 28 31 21 11 12 9 2 352 349 337 325 321 310 301 285 262 256 251 247 238 233 234 231 231 231